[[{"header":{"parameterUnit":"m.s-1","parameterCategory":1,"la1":30.2991,"la2":30.254,"lo1":-89.0895,"lo2":-89.0444,"dy":0.0017,"dx":0.0017,"nx":28,"ny":28,"refTime":"2025-05-22T21:00:00:Z","depth":0,"parameterNumber":2,"parameterNumberName":"U-component_of_WINDS"},"data":[0,0,0,0,0,0,0,0,0,0,0,0,0,0,0,0,0,0,0,0,0,0,0,0,0,0,0,0,0,0,0,0,0,0,0,0,0,0,0,0,0,0,0,0,0,0,0,0,0,0,0,0,0,0,0,0,0,0,0.4389,0.439,0,0.4453,0.4454,0.4455,0.4484,0.4484,0.4483,0.4483,0.4548,0.455,0.4551,0,0,0,0,0,0,0,0,0,0,0,0,0,0.4288,0.429,0.4389,0.439,0.4391,0.4453,0.4454,0.4455,0.4484,0.4484,0.4483,0.4483,0.4547,0.4549,0.4552,0,0,0,0,0,0,0,0,0,0,0,0,0,0.434,0.4291,0.4389,0.4412,0.4415,0.4453,0.4454,0.4455,0.4484,0.4484,0.4483,0.4483,0.4547,0.4549,0.4552,0.4571,0,0,0.456,0.4561,0,0,0,0,0,0,0,0,0.4337,0.4344,0.4408,0.4411,0.4414,0.446,0.4442,0.4494,0.4484,0.4458,0.4483,0.4483,0.4519,0.4524,0.4536,0.4574,0.4576,0.456,0.4562,0.4563,0.4564,0,0,0,0,0,0,0,0.4334,0.4341,0.4414,0.4409,0.4413,0.4419,0.4426,0.4452,0.4488,0.446,0.4462,0.4469,0.452,0.4533,0.4538,0.4577,0.456,0.4563,0.4564,0.4565,0.4632,0.4632,0,0,0,0,0,0,0.4326,0.4338,0.4412,0.4416,0.4375,0.4421,0.4429,0.4446,0.4488,0.4494,0.4469,0.4471,0.4529,0.4535,0.454,0.4564,0.4563,0.4566,0.4567,0.4632,0.4632,0.4633,0,0,0,0,0,0,0.4324,0.4333,0.441,0.4378,0.4388,0.4423,0.4441,0.4447,0.446,0.4495,0.4501,0.4476,0.4529,0.4536,0.4563,0.4567,0.4567,0.4569,0.4632,0.4632,0.4632,0.4613,0,0,0,0,0,0,0.4321,0.4332,0.434,0.4378,0.439,0.4432,0.4441,0.4448,0.4465,0.4467,0.4503,0.4509,0.4529,0.4559,0.4565,0.4571,0.4571,0.4632,0.4632,0.4632,0.4613,0.4613,0.4612,0,0,0,0,0,0.4317,0.4332,0.434,0.4349,0.4401,0.4432,0.4439,0.4462,0.4465,0.4473,0.4495,0.4508,0.4565,0.4561,0.4569,0.4575,0.4632,0.4632,0.4632,0.4614,0.4613,0.4612,0,0,0,0,0,0,0.4293,0.4337,0.4347,0.4374,0.4399,0.4437,0.4448,0.4461,0.4485,0.4486,0.4513,0.4521,0.4545,0.4563,0.4557,0.4595,0.4599,0.4601,0.4583,0.4582,0.4581,0.4576,0.4574,0,0,0,0,0,0.4291,0.4314,0.4351,0.4371,0.4383,0.4413,0.4428,0.4443,0.447,0.4481,0.4505,0.453,0.4554,0.4569,0.4592,0.4616,0.4624,0.4624,0.4623,0.4622,0.4624,0.4636,0.4637,0.4634,0.4634,0.4634,0,0,0.4287,0.4314,0.4326,0.4367,0.4388,0.441,0.4422,0.4445,0.4461,0.4484,0.4511,0.4529,0.4559,0.4583,0.4595,0.4599,0.4626,0.4623,0.4622,0.4624,0.4637,0.4637,0.4637,0.4634,0.4634,0.4634,0,0,0.4291,0.4313,0.4333,0.4353,0.4385,0.4405,0.4409,0.4445,0.4458,0.4485,0.4503,0.4522,0.4562,0.4582,0.4598,0.4607,0.462,0.4614,0.461,0.4622,0.4623,0.4623,0.4626,0.4627,0.4615,0.4615,0.4615,0,0.4281,0.4316,0.4341,0.4362,0.4379,0.4401,0.442,0.4439,0.4477,0.4487,0.449,0.4541,0.4562,0.4592,0.4594,0.4606,0.4611,0.4611,0.4621,0.4621,0.4622,0.4625,0.4626,0.4615,0.4615,0.4615,0.4615,0,0.4302,0.4326,0.4337,0.4373,0.4391,0.4411,0.4438,0.4453,0.4467,0.4486,0.4513,0.4539,0.4568,0.4576,0.459,0.4607,0.4608,0.4615,0.4621,0.4621,0.4624,0.4626,0.4613,0.4614,0.4614,0.4614,0,0,0.4294,0.4343,0.4346,0.4362,0.4399,0.4417,0.4437,0.4466,0.4478,0.4503,0.452,0.4553,0.456,0.4577,0.4593,0.4604,0.4609,0.461,0.4611,0.4609,0.4629,0.4623,0.4624,0.4617,0.4617,0.4618,0.4626,0,0.4302,0.4341,0.4363,0.4392,0.4413,0.4434,0.4451,0.4475,0.4493,0.4513,0.4532,0.4555,0.4563,0.4573,0.4585,0.4606,0.4613,0.4606,0.4633,0.4634,0.4625,0.4626,0.462,0.4627,0.4628,0.4628,0.4628,0,0.4318,0.4342,0.4373,0.4406,0.4416,0.4431,0.4459,0.4478,0.4504,0.4516,0.4535,0.4551,0.4573,0.4576,0.4605,0.4599,0.4612,0.4624,0.4624,0.4628,0.4631,0.4629,0.4629,0.463,0.463,0.463,0.463,0,0.4307,0.4348,0.4372,0.4385,0.4424,0.4434,0.4451,0.4478,0.4493,0.4516,0.4526,0.4552,0.4566,0.4585,0.4607,0.4607,0.4634,0.4639,0.4644,0.4644,0.4649,0.4649,0.4651,0.4657,0.4657,0.4657,0.4657,0,0.4315,0.4333,0.4368,0.4382,0.4403,0.4428,0.4447,0.4465,0.4488,0.4506,0.4525,0.4541,0.4569,0.4588,0.4606,0.4627,0.4633,0.4643,0.4648,0.4642,0.464,0.465,0.465,0.4657,0.4657,0.4657,0.4657,0,0.4307,0.4332,0.4359,0.4393,0.4402,0.4416,0.4445,0.4459,0.4477,0.45,0.4506,0.4535,0.4559,0.4582,0.4614,0.4625,0.4646,0.4652,0.4638,0.464,0.4644,0.4643,0.4653,0.4656,0.4659,0.4659,0.4659,0,0.431,0.4325,0.4361,0.4374,0.439,0.4412,0.4427,0.4452,0.4467,0.4498,0.4508,0.4533,0.4554,0.4591,0.4614,0.4638,0.4645,0.4647,0.4649,0.4642,0.4645,0.4644,0.4645,0.4646,0.4646,0.4646,0.4646,0,0.4313,0.4324,0.4346,0.4372,0.439,0.4412,0.4434,0.4444,0.4472,0.4488,0.4513,0.4529,0.4562,0.4586,0.4612,0.4629,0.4642,0.4645,0.4647,0.4641,0.4632,0.4637,0.4635,0.4645,0.4645,0.4645,0.4645,0.4645,0.4311,0.4324,0.4351,0.4375,0.4394,0.4414,0.4429,0.4449,0.447,0.4499,0.4512,0.4536,0.4561,0.4598,0.4614,0.4633,0.4636,0.464,0.4641,0.4641,0.464,0.4629,0.4638,0.4638,0.4638,0.4638,0.4638,0,0.4314,0.4333,0.4354,0.4385,0.4403,0.4413,0.4438,0.4453,0.4474,0.4496,0.4517,0.4544,0.4568,0.4592,0.4617,0.4627,0.4634,0.4633,0.4633,0.4636,0.4635,0.4631,0.4627,0.4627,0.4627,0.4627,0.4627,0.4627,0.4318,0.4342,0.4355,0.4388,0.4406,0.443,0.4443,0.4461,0.4479,0.4509,0.4529,0.4545,0.4568,0.4594,0.4616,0.4622,0.463,0.4628,0.4636,0.4635,0.4636,0.4637,0.4633,0.4629,0.4629,0.4635,0.4635,0.4635]},{"header":{"parameterUnit":"m.s-1","parameterCategory":1,"la1":30.2991,"la2":30.254,"lo1":-89.0895,"lo2":-89.0444,"dy":0.0017,"dx":0.0017,"nx":28,"ny":28,"refTime":"2025-05-22T21:00:00:Z","depth":0,"parameterNumber":3,"parameterNumberName":"V-component_of_WINDS"},"data":[0,0,0,0,0,0,0,0,0,0,0,0,0,0,0,0,0,0,0,0,0,0,0,0,0,0,0,0,0,0,0,0,0,0,0,0,0,0,0,0,0,0,0,0,0,0,0,0,0,0,0,0,0,0,0,0,0,0,3.1854,3.1854,0,3.189,3.189,3.189,3.1846,3.1845,3.1843,3.1842,3.1876,3.1878,3.188,0,0,0,0,0,0,0,0,0,0,0,0,0,3.1744,3.1746,3.1854,3.1854,3.1855,3.189,3.189,3.1891,3.1847,3.1845,3.1843,3.1841,3.1875,3.1878,3.1881,0,0,0,0,0,0,0,0,0,0,0,0,0,3.1787,3.1747,3.1854,3.1837,3.1836,3.189,3.189,3.1891,3.1847,3.1845,3.1842,3.184,3.1874,3.1878,3.1881,3.1952,0,0,3.1892,3.1894,0,0,0,0,0,0,0,0,3.1784,3.1791,3.1839,3.1838,3.1837,3.1861,3.1864,3.1911,3.1848,3.1843,3.1842,3.1839,3.1873,3.1876,3.1888,3.1953,3.1955,3.1892,3.1895,3.1896,3.1897,0,0,0,0,0,0,0,3.1781,3.1789,3.1868,3.184,3.1839,3.1827,3.183,3.1872,3.1871,3.1843,3.184,3.1845,3.1872,3.1885,3.1889,3.1955,3.1892,3.1896,3.1898,3.1899,3.2078,3.2081,0,0,0,0,0,0,3.1781,3.1787,3.1867,3.1869,3.1804,3.1831,3.1834,3.1856,3.187,3.187,3.1847,3.1843,3.188,3.1884,3.189,3.1972,3.1896,3.19,3.1902,3.2076,3.2079,3.2082,0,0,0,0,0,0,3.1779,3.1788,3.1865,3.1827,3.1836,3.1835,3.1859,3.1858,3.1871,3.1873,3.1872,3.1861,3.1878,3.1885,3.1936,3.1972,3.1901,3.1904,3.2073,3.2077,3.208,3.2138,0,0,0,0,0,0,3.1776,3.1788,3.1816,3.1828,3.1838,3.1913,3.1862,3.186,3.1878,3.1872,3.1886,3.1886,3.1877,3.1931,3.194,3.1976,3.1907,3.2069,3.2074,3.2079,3.2132,3.2143,3.2152,0,0,0,0,0,3.1772,3.183,3.1817,3.1827,3.1873,3.1915,3.1921,3.1909,3.1881,3.1908,3.1909,3.1886,3.1967,3.1937,3.1946,3.1984,3.2067,3.2073,3.2079,3.2128,3.2141,3.2152,0,0,0,0,0,0,3.1822,3.1832,3.1817,3.1882,3.1898,3.1907,3.1941,3.1924,3.1947,3.1942,3.1926,3.1929,3.1984,3.1989,3.1955,3.2052,3.2012,3.202,3.2047,3.2059,3.2068,3.2065,3.191,0,0,0,0,0,3.184,3.1874,3.1881,3.1937,3.1946,3.1943,3.196,3.195,3.1966,3.1972,3.1977,3.1992,3.2021,3.2041,3.2067,3.2133,3.2135,3.2164,3.2174,3.2182,3.2188,3.2221,3.2234,3.2101,3.2101,3.21,0,0,3.1879,3.1888,3.1911,3.1947,3.1959,3.1993,3.1948,3.1987,3.2012,3.1978,3.2027,3.2031,3.2047,3.2105,3.2132,3.2111,3.2225,3.2189,3.2195,3.2198,3.2229,3.2241,3.2252,3.2105,3.2104,3.2103,0,0,3.1966,3.1978,3.2025,3.2037,3.2055,3.2052,3.2063,3.2075,3.2077,3.2126,3.2101,3.2129,3.218,3.2192,3.2204,3.2295,3.2273,3.2304,3.2355,3.2387,3.2398,3.2407,3.2437,3.2449,3.2311,3.2311,3.2311,0,3.2011,3.2063,3.2051,3.2091,3.2107,3.2078,3.2125,3.2137,3.2162,3.2173,3.2151,3.2213,3.2222,3.2282,3.2304,3.2316,3.2327,3.2302,3.2397,3.2406,3.2415,3.2443,3.2455,3.2315,3.2314,3.2314,3.2314,0,3.2116,3.2152,3.2188,3.2214,3.2234,3.2277,3.227,3.2292,3.228,3.2279,3.2328,3.2338,3.2365,3.2379,3.2368,3.2437,3.2424,3.24,3.2359,3.2431,3.2458,3.2469,3.232,3.2319,3.2317,3.2317,0,0,3.2236,3.2254,3.2267,3.2277,3.2294,3.2321,3.2362,3.239,3.2408,3.2426,3.2459,3.2502,3.2479,3.2494,3.2483,3.2512,3.2581,3.2484,3.2484,3.25,3.2655,3.2672,3.2685,3.2567,3.257,3.2571,3.2653,0,3.2321,3.2393,3.2383,3.2452,3.2484,3.2457,3.2492,3.2506,3.2506,3.2532,3.2532,3.2562,3.2531,3.2539,3.2567,3.2567,3.2612,3.2561,3.2596,3.2597,3.2591,3.27,3.2718,3.2795,3.2664,3.2666,3.2667,0,3.2431,3.2453,3.2525,3.2536,3.2549,3.2581,3.2604,3.2631,3.2645,3.2642,3.2658,3.2643,3.2682,3.2642,3.2695,3.2661,3.2674,3.2677,3.2679,3.2681,3.2635,3.2702,3.282,3.2831,3.2684,3.2683,3.2681,0,3.2508,3.2557,3.2605,3.2615,3.2629,3.2652,3.2659,3.2671,3.2687,3.2708,3.2718,3.2743,3.2756,3.2774,3.2765,3.2737,3.2819,3.2779,3.2817,3.2817,3.2834,3.2833,3.2954,3.2846,3.2846,3.2846,3.2846,0,3.2604,3.2649,3.264,3.267,3.2718,3.2706,3.2754,3.2757,3.2768,3.2796,3.2775,3.2802,3.2789,3.2815,3.2808,3.2852,3.2859,3.2857,3.2854,3.2858,3.2858,3.2865,3.2859,3.2849,3.2848,3.2848,3.2847,0,3.2698,3.2694,3.2745,3.2754,3.2758,3.2793,3.28,3.2827,3.2825,3.2862,3.287,3.2867,3.2896,3.2889,3.2921,3.2917,3.2971,3.2963,3.2967,3.2964,3.3002,3.2998,3.313,3.3146,3.303,3.3031,3.3032,0,3.2759,3.2792,3.2805,3.2823,3.2832,3.2861,3.2878,3.2867,3.2885,3.2903,3.2927,3.2955,3.2976,3.3024,3.3024,3.3048,3.3039,3.3083,3.3042,3.3044,3.3037,3.3034,3.3037,3.3091,3.3092,3.3094,3.3094,0,3.2866,3.2862,3.2888,3.2912,3.2933,3.2951,3.2968,3.2984,3.2974,3.2995,3.3025,3.3041,3.3074,3.3101,3.3123,3.3128,3.3109,3.3108,3.3117,3.3121,3.3121,3.3119,3.2987,3.3104,3.3103,3.3103,3.3102,3.3102,3.2944,3.2972,3.2985,3.3013,3.3024,3.304,3.3065,3.3067,3.3092,3.3118,3.3109,3.3143,3.3155,3.3182,3.3191,3.3216,3.3199,3.3214,3.3217,3.322,3.3224,3.3118,3.322,3.322,3.322,3.3219,3.3219,0,3.3049,3.3055,3.3082,3.3105,3.3127,3.3109,3.3125,3.3145,3.3175,3.3188,3.3209,3.3242,3.3268,3.327,3.3294,3.3314,3.3306,3.332,3.3318,3.3319,3.3239,3.3227,3.3327,3.3327,3.3327,3.3327,3.3326,3.3326,3.3105,3.3151,3.3148,3.3198,3.3205,3.3238,3.3249,3.3262,3.3272,3.3311,3.3332,3.3334,3.3342,3.3366,3.3388,3.3388,3.3397,3.3415,3.3411,3.3336,3.3325,3.3315,3.3303,3.3417,3.3417,3.3489,3.3489,3.349]}]]